Regional Weather Roundup
Issued by NWS

Home | Current Version | Previous Version | Text Only | Print | Product List | Glossary On
Versions: 1 2 3 4 5 6 7 8 9 10 11 12 13 14 15 16 17 18 19 20 21 22 23 24 25 26 27 28 29 30 31 32 33 34 35 36 37 38 39 40 41 42 43 44 45 46 47 48 49 50
786
ASUS43 KDTX 241710
RWRMI
MICHIGAN HOURLY REGIONAL WEATHER ROUNDUP
NATIONAL WEATHER SERVICE DETROIT/PONTIAC MI
100 PM EDT TUE APR 24 2018

NOTE: "FAIR" INDICATES FEW OR NO CLOUDS BELOW 12,000 FEET WITH NO
SIGNIFICANT WEATHER AND/OR OBSTRUCTION TO VISIBILITY.

MIZ047>049-052>055-059>063-066>070-074>076-081>083-241800-
SOUTHEAST LOWER MICHIGAN

CITY           SKY/WX    TMP DP  RH WIND       PRES   REMARKS
ADRIAN         CLOUDY    53  51  93 SE14      30.06F FOG
ALMA           CLOUDY    58  51  78 E5        30.08F
ANN ARBOR      CLOUDY    55  50  83 E9        30.06F
BAD AXE        CLOUDY    63  41  43 E6        30.10F
CARO           CLOUDY    63  44  48 E7        30.07F
DETROIT CITY   CLOUDY    58  48  69 SE9       30.08F
DETROIT        LGT RAIN  54  49  83 SE10      30.08F
FLINT          PTSUNNY   66  46  48 VRB5G16   30.05F
GROSSE ILE     LGT RAIN  52  50  95 SE6       30.07F
HILLSDALE      CLOUDY    52  46  82 E9        30.04F
HOWELL         PTSUNNY   62  48  59 E8        30.05F

CITY           SKY/WX    TMP DP  RH WIND       PRES   REMARKS
JACKSON        CLOUDY    57  50  77 E9        30.05F
LAMBERTVILLE   LGT RAIN  54  50  89 E8        30.05F
LANSING        CLOUDY    60  49  66 SE8       30.06F
LAPEER         PTSUNNY   64  45  49 SE8       30.06F
MASON          CLOUDY    61  47  60 S9        30.06F
MONROE         CLOUDY    51  49  93 E6        30.07S FOG
MT. CLEMENS    PTSUNNY   61  50  67 S15       30.07F
PONTIAC        PTSUNNY   62  47  57 SE10      30.05F
PORT HOPE        N/A     48  43  82 CALM      30.09F
PORT HURON     PTSUNNY   63  45  51 SE8G16    30.09S
TRI CITIES     CLOUDY    59  48  67 N3        30.08F
MIDLAND        DRIZZLE   55  50  83 CALM      30.09F
TROY           PTSUNNY   63  46  54 SE7       30.08F
SAGINAW HB     CLOUDY    61  46  59 SE3       30.07F
$$
MIZ043>046-050>051-056>058-064>065-071>073-077>080-241800-
SOUTHWEST LOWER MICHIGAN

CITY           SKY/WX    TMP DP  RH WIND       PRES   REMARKS
BATTLE CREEK   CLOUDY    57  49  74 E7        30.05F
BENTON HARBOR  CLOUDY    64  48  56 E7        30.02F
BIG RAPIDS     CLOUDY    57  44  62 SE9       30.07F
COLDWATER      CLOUDY    56  50  81 E7        30.04F
FREMONT        CLOUDY    58  43  56 SE6       30.06F
HOLLAND        CLOUDY    60  49  66 SE8       30.05F
GRAND RAPIDS   CLOUDY    59  48  67 E8        30.06F
IONIA          CLOUDY    59  49  68 E7        30.06F
KALAMAZOO      CLOUDY    59  48  67 E7        30.05F
LUDINGTON      CLOUDY    59  49  69 W6        30.06F
MARSHALL       CLOUDY    57  49  75 E9        30.04F
MOUNT PLEASANT PTSUNNY   56  50  80 SE3       30.09S
MUSKEGON       CLOUDY    61  48  62 E6        30.06F
SOUTH HAVEN    CLOUDY    61  48  61 NE6       30.03F
$$
MIZ016>042-241800-
NORTHERN LOWER MICHIGAN

CITY           SKY/WX    TMP DP  RH WIND       PRES   REMARKS
ALPENA         CLOUDY    58  46  64 SW7       30.09F
BEAVER ISLAND  FAIR      59  31  35 W5        30.07F
BELLAIRE       FAIR      62  46  54 NE3       30.07F
CADILLAC       FAIR      57  47  69 SE6       30.08S
CHARLEVOIX     FAIR      59  41  52 NW3       30.09F
FRANKFORT      FAIR      59  49  68 W7        30.08S
GAYLORD        LGT RAIN  50  44  80 S5        30.09F
HARBOR SPRINGS FAIR      57  39  50 CALM      30.08F
HOUGHTON LAKE  LGT RAIN  55  46  71 S5        30.09F
MANISTEE       FAIR      58  45  62 NW7       30.06F
OSCODA         CLOUDY    51  38  61 SE6       30.10F
PELLSTON       FAIR      63  37  38 CALM      30.07F
ROGERS CITY    FAIR      49  38  65 CALM      30.09F
TRAVERSE CITY  CLOUDY    58  43  57 NE6       30.06F
$$
MIZ007>008-015-241800-
EASTERN UPPER MICHIGAN

CITY           SKY/WX    TMP DP  RH WIND       PRES   REMARKS
KINROSS        FAIR      54  29  38 SE7       30.07F
MACKINAC ISLAN FAIR      55  31  40 N3        30.07F
NEWBERRY       PTSUNNY   62  18  18 W3        30.06S
S. S. MARIE    FAIR      56  31  38 S5        30.06F
MUNISING         N/A     41  33  73 NW15      30.14R
$$
MIZ004>006-011>014-085-241800-
CENTRAL UPPER MICHIGAN

CITY           SKY/WX    TMP DP  RH WIND       PRES   REMARKS
MANISTIQUE     PTSUNNY   51  29  42 S5        30.08S
ESCANABA       FAIR      55  33  43 SE6       30.08S
MENOMINEE      FAIR      60  28  29 E6        30.08F
SAWYER-GWINN   SUNNY     46  32  57 N20G25    30.14R
$$
MIZ001>003-009>011-084-241800-
WESTERN UPPER MICHIGAN

CITY           SKY/WX    TMP DP  RH WIND       PRES   REMARKS
IRON MOUNTAIN  FAIR      65  32  29 VRB5      30.06F
HOUGHTON       FAIR      48  25  40 NE8       30.16S
COPPER HARBOR    N/A     40  30  67 N9        30.17S WCI  34
IRONWOOD       FAIR      50  29  44 N6        30.18S
$$

ABBREVIATIONS USED IN REMARKS
   TC - TEMPERATURE IN CELSIUS
  WCI - WIND CHILL INDEX
   HX - HEAT INDEX
  VSB - VISIBILITY





USA.gov is the U.S. government's official web portal to all federal, state and local government web resources and services.